Вернуться в каталог

THORAD DELTA 1 DEB

АктивенSSO
NORAD 42608·DEBRIS·🇺🇸 United States

Запущен Nov 15, 1974 с Vandenberg Space Force Base

Loading…

Ближайшие Пролёты (ближайшие 24 часа)

TLE

СвежийSource: Space-Track

Эпоха: Sep 11, 2026, 22:29 UTC

1 42608U 74089FZ  26254.93735294 -.00000034  00000-0  98409-4 0  9991
2 42608 102.5486 244.0031 0074051  62.0031 298.8491 12.28118100574079

Отслеживайте THORAD DELTA 1 DEB в реальном времени с AllMySat

Download on the App Store